Regional Weather Roundup
Issued by NWS

Home | Current Version | Previous Version | Graphics & Text | Print | Product List | Glossary On
Versions: 1 2 3 4 5 6 7 8 9 10 11 12 13 14 15 16 17 18 19 20 21 22 23 24 25 26 27 28 29 30 31 32 33 34 35 36 37 38 39 40 41 42 43 44 45 46 47 48 49 50
000
ASUS43 KMPX 312101
RWRMN
WEATHER ROUNDUP FOR MINNESOTA
NATIONAL WEATHER SERVICE TWIN CITIES/CHANHASSEN MN
400 PM CDT SUN AUG 31 2014


NOTE: "FAIR" INDICATES FEW OR NO CLOUDS BELOW 12,000 FEET WITH NO
SIGNIFICANT WEATHER AND/OR OBSTRUCTIONS TO VISIBILITY. N/A MEANS
CURRENT SKY AND/OR WEATHER CONDITIONS ARE NOT AVAILABLE.

MNZ060>063-068>070-312200-
   Twin Cities Metro

CITY           SKY/WX    TMP DP  RH WIND       PRES   REMARKS
TWIN CITIES    PTSUNNY   84  67  56 S13       29.68S
ST PAUL        PTSUNNY   83  67  58 S13       29.68R
CRYSTAL        PTSUNNY   83  67  58 S10       29.66S
BLAINE         PTSUNNY   82  68  61 S14G21    29.68R
LAKEVILLE      PTSUNNY   79  68  69 S9        29.69S
EDEN PRAIRIE   CLOUDY    82  68  62 S12       29.66F
SOUTH ST PAUL  PTSUNNY   84  67  55 SW8       29.69R
LAKE ELMO      FAIR      82  68  61 S13G22    29.70R
$$
MNZ001>005-007-008-013>017-022>024-027-028-312200-
   Northwest Minnesota

CITY           SKY/WX    TMP DP  RH WIND       PRES   REMARKS
BEMIDJI        LGT RAIN  72  64  75 SW13      29.60R
HALLOCK        PTSUNNY   68  64  88 W7        29.54R
ROSEAU         PTSUNNY   66  63  88 SW14      29.52R
WARROAD        RAIN      64  61  88 S6        29.52S
THIEF RVR FALL CLOUDY    66  63  88 W10       29.58R
CROOKSTON      CLOUDY    68  64  88 W12G17    29.58S
FOSSTON        CLOUDY    64  63  94 SW10      29.62R
DETROIT LAKES  RAIN      68  64  88 W12       29.66R
MOORHEAD       CLOUDY    73  66  78 W10       29.63R
PARK RAPIDS    PTSUNNY   77  64  64 SW16      29.62R
MAHNOMEN       CLOUDY    66  64  92 W9        29.62R
$$
MNZ006-009>011-018-025>026-312200-
   North Central Minnesota

CITY           SKY/WX    TMP DP  RH WIND       PRES   REMARKS
BAUDETTE       LGT RAIN  66  63  90 S9        29.54S
FLAG ISLAND    LGT RAIN  64  63  94 S25       29.49F
INTL FALLS     CLOUDY    69  61  75 S8        29.60F
WASKISH        CLOUDY    70  64  83 SE8       29.56S
BIG FORK       MOSUNNY   72  64  78 S8G18     29.63S
LONGVILLE      MOSUNNY   77  68  73 SE14      29.61F
GRAND RAPIDS   PTSUNNY   72  64  78 S17       29.64R
CRANE LAKE     CLOUDY    68  59  73 S9G16     29.65F
ORR            CLOUDY    66  57  72 SE9G16    29.63S
COOK           CLOUDY    68  61  77 SE15G22   29.65F
WALKER         MOCLDY    75  66  74 S12       29.60F
$$
MNZ012-019>021-037-312200-
   Northeast Minnesota

CITY           SKY/WX    TMP DP  RH WIND       PRES   REMARKS
DULUTH         CLOUDY    66  61  84 E14       29.69F
ELY            CLOUDY    66  57  72 SE17G24   29.69F
HIBBING        CLOUDY    70  61  73 SE14      29.67F
EVELETH        CLOUDY    64  59  82 SE10      29.70S
DULUTH HARBOR  PTSUNNY   64  61  88 NE18G25   29.68F
TWO HARBORS    CLOUDY    63  57  82 NE8       29.70F
SILVER BAY     PTSUNNY   61  61 100 NE12      29.73S
GRAND MARAIS     N/A     62  57  83 NE14G23   29.76F
G MARAIS ARPRT PTSUNNY   61  52  72 E9G21     29.78F
$$
MNZ029>031-032-039>041-046>048-054>057-064-312200-
   West Central Minnesota

CITY           SKY/WX    TMP DP  RH WIND       PRES   REMARKS
FERGUS FALLS   PTSUNNY   73  63  68 W10       29.65R
WHEATON        PTSUNNY   73  63  68 W6        29.68S
MORRIS         PTSUNNY   81  64  57 W20G26    29.67R
ALEXANDRIA     PTSUNNY   78  66  66 W17       29.67R
ELBOW LAKE     PTSUNNY   74  64  70 W14G23    29.67R
WADENA         MOSUNNY   77  64  65 W14G23    29.63R
GLENWOOD       SUNNY     79  68  69 SW12      29.66R
APPLETON       MOSUNNY   82  64  54 W15G22    29.66R
BENSON         PTSUNNY   82  66  57 NW14      29.65R
ORTONVILLE     MOSUNNY   77  63  61 W10G16    29.68R
MADISON        MOSUNNY   82  66  57 W17       29.67R
WILLMAR        FAIR      82  68  61 SW10      29.66S
$$
MNZ033>034-036-042>043-049>051-058-059-312200-
   Central Minnesota

CITY           SKY/WX    TMP DP  RH WIND       PRES   REMARKS
ST CLOUD       CLOUDY    81  70  69 S14       29.64F
SAUK CENTRE    FAIR      81  66  61 SW14      29.65S
PAYNESVILLE    MOSUNNY   78  67  69 S14G20    29.66R
AITKIN         PTSUNNY   81  70  69 S15G21    29.62F
PINE RIVER     PTSUNNY   79  66  65 S15G21    29.65F
BRAINERD       PTSUNNY   76  67  73 S14       29.63F
STAPLES        MOSUNNY   81  64  57 SW9       29.62F
LONG PRAIRIE   PTSUNNY   79  64  61 S15       29.64F
LITTLE FALLS   PTSUNNY   81  64  57 S13G20    29.64S
LITCHFIELD     PTSUNNY   82  72  69 SW6       29.66S
BUFFALO        CLOUDY    80  68  65 S8        29.67S
MAPLE LAKE     CLOUDY    82  73  74 S5        29.67S
$$
MNZ037-044-045-052-053-312200-
   East Central Minnesota

CITY           SKY/WX    TMP DP  RH WIND       PRES   REMARKS
PRINCETON      CLOUDY    81  72  74 S7        29.65F
MORA           CLOUDY    75  68  78 S5        29.67R
CAMBRIDGE      CLOUDY    81  66  61 S7        29.64S
RUSH CITY      PTSUNNY   79  70  73 SE7       29.66F
MOOSE LAKE     CLOUDY    72  68  88 CALM      29.64F
HINCKLEY       CLOUDY    77  70  78 S9        29.65F
CLOQUET        DRIZZLE   68  64  88 E6        29.68F
MCGREGOR       PTSUNNY   73  68  83 S12       29.65F
$$
MNZ071>073-080-081-089-090-097-098-312200-
   Southwest Minnesota

CITY           SKY/WX    TMP DP  RH WIND       PRES   REMARKS
MONTEVIDEO     MOSUNNY   86  68  54 W10       29.66R
GRANITE FALLS  SUNNY     82  67  60 SW14      29.67S
CANBY          MOSUNNY   82  63  52 W17       29.68R
MARSHALL       SUNNY     84  64  51 W16       29.66S
REDWOOD FALLS  MOSUNNY   83  68  60 SW13      29.66S
OLIVIA         MOSUNNY   82  68  61 SW10G17   29.66S
PIPESTONE      SUNNY     81  64  57 W10       29.72S
WINDOM         PTSUNNY   79  66  65 S9        29.71S
WORTHINGTON    MOSUNNY   79  66  65 S12       29.73F
JACKSON        CLOUDY    79  64  61 SW13      29.73F
TRACY          MOSUNNY   82  69  64 SW14G20   29.69S
SLAYTON        MOSUNNY   80  66  62 CALM      29.72S
$$
MNZ065>067-074>077-082>085-091>093-312200-
   South Central Minnesota

CITY           SKY/WX    TMP DP  RH WIND       PRES   REMARKS
MANKATO        CLOUDY    79  66  65 S12G21    29.70R
NEW ULM        CLOUDY    75  72  88 S7        29.69S
ST JAMES       CLOUDY    79  66  65 S10       29.72R
FAIRMONT       CLOUDY    79  63  57 S12       29.72S
GLENCOE        CLOUDY    78  68  72 S9        29.68R
FARIBAULT      CLOUDY    84  64  51 S7        29.71F
OWATONNA       CLOUDY    82  68  61 S9G17     29.72F
WASECA         CLOUDY    77  64  65 S8        29.73S
ALBERT LEA     PTSUNNY   82  68  61 S8G20     29.74R
$$
MNZ078>079-086>088-094>096-312200-
   Southeast Minnesota

CITY           SKY/WX    TMP DP  RH WIND       PRES   REMARKS
ROCHESTER      MOSUNNY   84  69  60 S16G29    29.76F
RED WING       MOSUNNY   84  68  58 S7        29.70S
STANTON        PTSUNNY   83  69  62 SW7       29.70S
DODGE CENTER   PTSUNNY   86  70  58 S16G24    29.74F HX  90
WINONA         MOSUNNY   82  68  61 SE8       29.75F
AUSTIN         PTSUNNY   82  72  69 S10       29.75S
PRESTON        MOSUNNY   82  73  72 S9        29.78F
$$
ABBREVIATIONS USED IN REMARKS
   TC - TEMPERATURES IN CELSIUS
  WCI - WIND CHILL INDEX
   HX - HEAT INDEX
  VSB - VISIBILITY
$$


USA.gov is the U.S. government's official web portal to all federal, state and local government web resources and services.